Flag for Estonia Weather past 2 weeks in Pärnu, Estonia

Now
56 °F

Overcast.


Feels Like: 56 °F
Forecast: 49 / 64 °F
Wind: 2 mph from Northwest

Location: Pjarnu

Current Time: Aug 28, 2014 at 5:05:43 AM

Latest Report: Aug 28, 2014 at 4:00 AM


Visibility: 31 mi

Pressure: 29.58 "Hg

Humidity: 100%

Dew point: 56 °F

Location of PärnuLocation

Historic Weather in Pärnu — Graph

°F

Pärnu temperature yesterday

Maximum temperature yesterday: 63 °F (at 5:00 PM)
Minimum temperature yesterday: 54 °F (at 3:00 AM)
Average temperature yesterday: 58 °F

Past Weeks' High & Low Weather Summary

 TemperatureHumidityPressure
High70 °F (Aug 13, 3:00 PM)100% (Aug 14, 7:00 PM)29.90 "Hg (Aug 14, 7:00 PM)
Low48 °F (Aug 22, 4:00 AM)53% (Aug 13, 3:00 PM)29.38 "Hg (Aug 27, 4:00 AM)
Average59 °F84%29.67 "Hg
* Reported Aug 13 3:00 AM — Aug 28 3:00 AM, Pärnu, Weather by CustomWeather, © 2014

Note: Actual official high and low records may vary slightly from our data, if they occured in-between our weather recording intervals... More about our weather records

Advertising

Pärnu weather history for previous 24 hours

 ConditionsComfort  
Time TempWeatherWind HumidityBarometerVisibility
3:00 AM
Aug 28
57 °FOvercast.3 mph100%29.57 "Hg28 mi
2:00 AM56 °FOvercast.2 mph100%29.57 "Hg22 mi
1:00 AM56 °FOvercast.1 mph100%29.56 "Hg22 mi
12:00 AM56 °FPassing clouds.2 mph100%29.56 "Hg25 mi
11:00 PM
Aug 27
57 °FPassing clouds.2 mph99%29.55 "Hg22 mi
10:00 PM57 °FPassing clouds.2 mph100%29.54 "Hg25 mi
9:00 PM59 °FOvercast.2 mph95%29.53 "Hg31 mi
8:00 PM60 °FScattered clouds.3 mph80%29.50 "Hg31 mi
7:00 PM61 °FSunny.3 mph72%29.50 "Hg31 mi
5:00 PM63 °FScattered clouds.5 mph70%29.47 "Hg25 mi
4:00 PM63 °FPartly sunny.6 mph74%29.44 "Hg22 mi
3:00 PM59 °FSprinkles. Overcast.5 mph97%29.44 "Hg28 mi
2:00 PM59 °FRain. Low clouds.2 mph99%29.44 "Hg5 mi
1:00 PM60 °FRain showers. Overcast.3 mph87%29.44 "Hg28 mi
12:00 PM60 °FOvercast.2 mph78%29.41 "Hg31 mi
11:00 AM61 °FScattered clouds.2 mph91%29.41 "Hg22 mi
10:00 AM58 °FPartly sunny.3 mph100%29.41 "Hg28 mi
9:00 AM57 °FLow clouds.3 mph100%29.38 "Hg28 mi
8:00 AM57 °FPartly sunny.2 mph100%29.38 "Hg28 mi
7:00 AM56 °FDrizzle. Low clouds.1 mph100%29.38 "Hg16 mi
6:00 AM55 °FSprinkles. Overcast.2 mph100%29.38 "Hg18 mi
5:00 AM55 °FOvercast.2 mph100%29.38 "Hg31 mi
Weather by CustomWeather, © 2014

See weather overviewHow to use our weather pages